Location: Vancouver
(49.2500°N, 123.1330°W)
Time: 04:58:45
(UTC-07:00)

ERS-2 - Visible Passes

Search period start: 20 September 2014 00:00
Search period end: 30 September 2014 00:00
Orbit: 529 x 537 km, 98.6° (Epoch: 18 September)

Date Brightness Start Highest point End Pass type
(mag) Time Alt. Az. Time Alt. Az. Time Alt. Az.
20 Sep 2.7 21:04:50 10° NNE 21:07:57 41° ENE 21:07:57 41° ENE visible
20 Sep 4.8 22:39:48 10° NNW 22:42:33 19° WNW 22:43:17 18° WNW visible
21 Sep 3.2 20:55:25 10° NNE 20:57:55 29° ENE 20:57:55 29° ENE visible
21 Sep 4.5 22:30:01 10° N 22:33:06 23° WNW 22:33:15 23° WNW visible
22 Sep 3.7 20:46:02 10° NE 20:47:54 21° ENE 20:47:54 21° ENE visible
22 Sep 4.2 22:20:17 10° N 22:23:14 28° NW 22:23:14 28° NW visible
23 Sep 4.1 20:36:42 10° NE 20:37:52 16° ENE 20:37:52 16° ENE visible
23 Sep 4.0 22:10:35 10° N 22:13:12 31° NW 22:13:12 31° NW visible
24 Sep 4.4 20:27:28 10° NE 20:27:50 12° NE 20:27:50 12° NE visible
24 Sep 3.9 22:00:54 10° N 22:03:10 30° NNW 22:03:10 30° NNW visible
25 Sep 4.0 21:51:15 10° N 21:53:08 27° N 21:53:08 27° N visible
26 Sep 4.2 21:41:37 10° NNE 21:43:05 22° N 21:43:05 22° N visible
27 Sep 4.4 21:32:00 10° NNE 21:33:03 18° NNE 21:33:03 18° NNE visible
27 Sep 5.6 23:08:06 10° NW 23:08:23 11° NW 23:08:23 11° NW visible
28 Sep 4.6 21:22:25 10° NNE 21:23:00 14° NNE 21:23:00 14° NNE visible
28 Sep 5.5 22:57:55 10° NNW 22:58:20 11° NNW 22:58:20 11° NNW visible
29 Sep 4.8 21:12:50 10° NNE 21:12:57 11° NNE 21:12:57 11° NNE visible
29 Sep 5.5 22:47:55 10° NNW 22:48:17 12° NNW 22:48:17 12° NNW visible
